Time,TemperatureF,DewpointF,PressureIn,WindDirection,WindDirectionDegrees,WindSpeedMPH,WindSpeedGustMPH,Humidity,HourlyPrecipIn,Conditions,Clouds,dailyrainin,SoftwareType,DateUTC
2013-05-05 00:00:00,59.1,45.2,29.47,South,184,2.0,4.0,60,0.00,,---,0.00,VWS V14.01,2013-05-05 07:00:00,
2013-05-05 00:05:00,58.7,45.7,29.47,South,184,3.0,5.0,62,0.00,,---,0.00,VWS V14.01,2013-05-05 07:05:00,
2013-05-05 00:10:00,58.4,46.3,29.47,South,184,3.0,6.0,64,0.00,,---,0.00,VWS V14.01,2013-05-05 07:10:00,
2013-05-05 00:15:00,58.0,46.3,29.47,South,184,3.0,4.0,65,0.00,,---,0.00,VWS V14.01,2013-05-05 07:15:00,
2013-05-05 00:20:00,57.7,46.4,29.48,South,184,0.0,4.0,66,0.00,,---,0.00,VWS V14.01,2013-05-05 07:20:00,
2013-05-05 00:25:00,57.4,46.5,29.48,South,184,3.0,4.0,67,0.00,,---,0.00,VWS V14.01,2013-05-05 07:25:00,
2013-05-05 00:30:00,57.1,46.3,29.48,South,184,1.0,2.0,67,0.00,,---,0.00,VWS V14.01,2013-05-05 07:30:00,
2013-05-05 00:35:00,56.9,46.5,29.48,South,184,2.0,4.0,68,0.00,,---,0.00,VWS V14.01,2013-05-05 07:35:00,
2013-05-05 00:40:00,56.7,46.7,29.48,South,184,0.0,4.0,69,0.00,,---,0.00,VWS V14.01,2013-05-05 07:40:00,
2013-05-05 00:45:00,56.5,46.5,29.48,South,184,3.0,3.0,69,0.00,,---,0.00,VWS V14.01,2013-05-05 07:45:00,
2013-05-05 00:50:00,56.3,46.7,29.48,South,184,3.0,4.0,70,0.00,,---,0.00,VWS V14.01,2013-05-05 07:50:00,
2013-05-05 00:55:00,56.0,46.7,29.48,South,184,4.0,4.0,71,0.00,,---,0.00,VWS V14.01,2013-05-05 07:55:00,
2013-05-05 01:00:00,55.8,46.5,29.47,South,184,3.0,3.0,71,0.00,,---,0.00,VWS V14.01,2013-05-05 08:00:00,
2013-05-05 01:05:00,55.6,46.4,29.47,South,184,2.0,4.0,71,0.00,,---,0.00,VWS V14.01,2013-05-05 08:05:00,
2013-05-05 01:10:00,55.4,46.2,29.47,South,184,3.0,4.0,71,0.00,,---,0.00,VWS V14.01,2013-05-05 08:10:00,
2013-05-05 01:15:00,55.3,46.4,29.47,South,184,2.0,3.0,72,0.00,,---,0.00,VWS V14.01,2013-05-05 08:15:00,
2013-05-05 01:20:00,55.2,46.3,29.47,South,184,0.0,3.0,72,0.00,,---,0.00,VWS V14.01,2013-05-05 08:20:00,
2013-05-05 01:25:00,55.1,46.2,29.47,South,184,2.0,4.0,72,0.00,,---,0.00,VWS V14.01,2013-05-05 08:25:00,
2013-05-05 01:30:00,55.0,46.2,29.48,South,184,3.0,3.0,72,0.00,,---,0.00,VWS V14.01,2013-05-05 08:30:00,
2013-05-05 01:35:00,54.8,46.3,29.47,South,181,4.0,6.0,73,0.00,,---,0.00,VWS V14.01,2013-05-05 08:35:00,
2013-05-05 01:40:00,54.6,46.1,29.47,South,180,4.0,8.0,73,0.00,,---,0.00,VWS V14.01,2013-05-05 08:40:00,
2013-05-05 01:45:00,54.5,46.0,29.47,South,181,5.0,8.0,73,0.00,,---,0.00,VWS V14.01,2013-05-05 08:45:00,
2013-05-05 01:50:00,54.4,45.9,29.47,South,180,4.0,5.0,73,0.00,,---,0.00,VWS V14.01,2013-05-05 08:50:00,
2013-05-05 01:55:00,54.4,45.9,29.47,South,178,5.0,7.0,73,0.00,,---,0.00,VWS V14.01,2013-05-05 08:55:00,
2013-05-05 02:00:00,54.4,45.9,29.48,South,176,6.0,8.0,73,0.00,,---,0.00,VWS V14.01,2013-05-05 09:00:00,
2013-05-05 02:05:00,54.4,45.9,29.47,South,183,6.0,9.0,73,0.00,,---,0.00,VWS V14.01,2013-05-05 09:05:00,
2013-05-05 02:10:00,54.5,46.0,29.47,South,182,7.0,9.0,73,0.00,,---,0.00,VWS V14.01,2013-05-05 09:10:00,
2013-05-05 02:15:00,54.8,46.0,29.47,South,190,8.0,9.0,72,0.00,,---,0.00,VWS V14.01,2013-05-05 09:15:00,
2013-05-05 02:20:00,55.3,46.4,29.47,SSW,205,8.0,12.0,72,0.00,,---,0.00,VWS V14.01,2013-05-05 09:20:00,
2013-05-05 02:25:00,55.8,46.5,29.47,SSW,205,8.0,12.0,71,0.00,,---,0.00,VWS V14.01,2013-05-05 09:25:00,
2013-05-05 02:30:00,56.3,47.0,29.47,SSW,199,14.0,14.0,71,0.00,,---,0.00,VWS V14.01,2013-05-05 09:30:00,
2013-05-05 02:35:00,56.9,47.2,29.47,SSW,192,8.0,14.0,70,0.00,,---,0.00,VWS V14.01,2013-05-05 09:35:00,
2013-05-05 02:40:00,57.3,47.2,29.47,SSW,194,10.0,14.0,69,0.00,,---,0.00,VWS V14.01,2013-05-05 09:40:00,
2013-05-05 02:45:00,57.5,47.4,29.47,SSW,200,12.0,16.0,69,0.00,,---,0.00,VWS V14.01,2013-05-05 09:45:00,
2013-05-05 02:50:00,57.6,47.5,29.47,South,191,11.0,15.0,69,0.00,,---,0.00,VWS V14.01,2013-05-05 09:50:00,
2013-05-05 02:55:00,57.7,47.6,29.47,SSW,205,10.0,16.0,69,0.00,,---,0.00,VWS V14.01,2013-05-05 09:55:00,
2013-05-05 03:00:00,57.7,47.6,29.47,SSW,202,13.0,16.0,69,0.00,,---,0.00,VWS V14.01,2013-05-05 10:00:00,
2013-05-05 03:05:00,57.7,47.6,29.48,SSW,203,11.0,15.0,69,0.00,,---,0.00,VWS V14.01,2013-05-05 10:05:00,
2013-05-05 03:10:00,57.8,47.7,29.48,SSW,199,11.0,15.0,69,0.00,,---,0.00,VWS V14.01,2013-05-05 10:10:00,
2013-05-05 03:15:00,57.9,47.4,29.48,SSW,211,9.0,15.0,68,0.00,,---,0.00,VWS V14.01,2013-05-05 10:15:00,
2013-05-05 03:20:00,58.1,47.2,29.48,SSW,205,8.0,17.0,67,0.00,,---,0.00,VWS V14.01,2013-05-05 10:20:00,
2013-05-05 03:25:00,58.2,46.9,29.48,SSW,200,10.0,17.0,66,0.00,,---,0.00,VWS V14.01,2013-05-05 10:25:00,
2013-05-05 03:30:00,58.4,47.1,29.49,SSW,201,7.0,17.0,66,0.00,,---,0.00,VWS V14.01,2013-05-05 10:30:00,
2013-05-05 03:35:00,58.1,47.6,29.48,SSW,199,9.0,13.0,68,0.00,,---,0.00,VWS V14.01,2013-05-05 10:35:00,
2013-05-05 03:40:00,57.7,47.2,29.48,SW,215,8.0,14.0,68,0.00,,---,0.00,VWS V14.01,2013-05-05 10:40:00,
2013-05-05 03:45:00,57.5,47.0,29.48,SSW,198,11.0,14.0,68,0.00,,---,0.00,VWS V14.01,2013-05-05 10:45:00,
2013-05-05 03:50:00,57.2,46.8,29.49,SSW,202,3.0,10.0,68,0.00,,---,0.00,VWS V14.01,2013-05-05 10:50:00,
2013-05-05 03:55:00,56.9,46.5,29.49,SSW,202,4.0,10.0,68,0.00,,---,0.00,VWS V14.01,2013-05-05 10:55:00,
2013-05-05 04:00:00,56.7,46.7,29.49,SSW,202,6.0,10.0,69,0.00,,---,0.00,VWS V14.01,2013-05-05 11:00:00,
2013-05-05 04:05:00,56.5,46.5,29.49,SW,223,5.0,8.0,69,0.00,,---,0.00,VWS V14.01,2013-05-05 11:05:00,
2013-05-05 04:10:00,56.4,46.4,29.49,SW,218,4.0,9.0,69,0.00,,---,0.00,VWS V14.01,2013-05-05 11:10:00,
2013-05-05 04:15:00,56.5,46.5,29.49,SW,234,6.0,10.0,69,0.00,,---,0.00,VWS V14.01,2013-05-05 11:15:00,
2013-05-05 04:20:00,56.6,46.6,29.50,SSW,205,7.0,12.0,69,0.00,,---,0.00,VWS V14.01,2013-05-05 11:20:00,
2013-05-05 04:25:00,56.6,46.6,29.50,SSW,204,6.0,12.0,69,0.00,,---,0.00,VWS V14.01,2013-05-05 11:25:00,
2013-05-05 04:30:00,56.7,46.7,29.50,SSW,201,8.0,12.0,69,0.00,,---,0.00,VWS V14.01,2013-05-05 11:30:00,
2013-05-05 04:35:00,56.6,46.6,29.51,SSW,206,7.0,15.0,69,0.00,,---,0.00,VWS V14.01,2013-05-05 11:35:00,
2013-05-05 04:40:00,56.5,46.5,29.51,SSW,203,9.0,15.0,69,0.00,,---,0.00,VWS V14.01,2013-05-05 11:40:00,
2013-05-05 04:45:00,56.4,46.8,29.51,SSW,200,11.0,15.0,70,0.00,,---,0.00,VWS V14.01,2013-05-05 11:45:00,
2013-05-05 04:50:00,56.3,46.7,29.51,SSW,200,9.0,15.0,70,0.00,,---,0.00,VWS V14.01,2013-05-05 11:50:00,
2013-05-05 04:55:00,56.1,46.8,29.51,SW,228,5.0,15.0,71,0.00,,---,0.00,VWS V14.01,2013-05-05 11:55:00,
2013-05-05 05:00:00,56.0,46.7,29.51,SW,221,7.0,15.0,71,0.00,,---,0.00,VWS V14.01,2013-05-05 12:00:00,
2013-05-05 05:05:00,55.8,46.5,29.52,SSW,213,6.0,8.0,71,0.00,,---,0.00,VWS V14.01,2013-05-05 12:05:00,
2013-05-05 05:10:00,55.6,46.4,29.52,SSW,211,7.0,11.0,71,0.00,,---,0.00,VWS V14.01,2013-05-05 12:10:00,
2013-05-05 05:15:00,55.5,46.3,29.52,SSW,202,8.0,13.0,71,0.00,,---,0.00,VWS V14.01,2013-05-05 12:15:00,
2013-05-05 05:20:00,55.4,46.5,29.52,SSW,198,11.0,11.0,72,0.00,,---,0.00,VWS V14.01,2013-05-05 12:20:00,
2013-05-05 05:25:00,55.3,46.4,29.53,SSW,200,2.0,11.0,72,0.00,,---,0.00,VWS V14.01,2013-05-05 12:25:00,
2013-05-05 05:30:00,55.2,46.7,29.53,SW,215,4.0,11.0,73,0.00,,---,0.00,VWS V14.01,2013-05-05 12:30:00,
2013-05-05 05:35:00,55.1,46.6,29.53,SSW,203,8.0,10.0,73,0.00,,---,0.00,VWS V14.01,2013-05-05 12:35:00,
2013-05-05 05:40:00,55.0,46.5,29.54,SSW,207,10.0,14.0,73,0.00,,---,0.00,VWS V14.01,2013-05-05 12:40:00,
2013-05-05 05:45:00,55.0,46.5,29.54,SSW,207,11.0,14.0,73,0.00,,---,0.00,VWS V14.01,2013-05-05 12:45:00,
2013-05-05 05:50:00,55.0,46.5,29.54,SSW,195,11.0,15.0,73,0.00,,---,0.00,VWS V14.01,2013-05-05 12:50:00,
2013-05-05 05:55:00,55.0,46.5,29.55,SSW,196,9.0,15.0,73,0.00,,---,0.00,VWS V14.01,2013-05-05 12:55:00,
2013-05-05 06:00:00,55.0,46.5,29.55,South,190,9.0,15.0,73,0.00,,---,0.00,VWS V14.01,2013-05-05 13:00:00,
2013-05-05 06:05:00,54.8,46.3,29.56,South,180,8.0,13.0,73,0.00,,---,0.00,VWS V14.01,2013-05-05 13:05:00,
2013-05-05 06:10:00,54.5,46.4,29.56,South,178,8.0,13.0,74,0.00,,---,0.00,VWS V14.01,2013-05-05 13:10:00,
2013-05-05 06:15:00,54.2,46.5,29.56,South,179,6.0,13.0,75,0.00,,---,0.00,VWS V14.01,2013-05-05 13:15:00,
2013-05-05 06:20:00,53.9,46.5,29.56,South,178,7.0,9.0,76,0.00,,---,0.00,VWS V14.01,2013-05-05 13:20:00,
2013-05-05 06:25:00,53.6,46.2,29.56,South,179,7.0,10.0,76,0.00,,---,0.00,VWS V14.01,2013-05-05 13:25:00,
2013-05-05 06:30:00,53.5,46.1,29.57,South,182,6.0,10.0,76,0.00,,---,0.00,VWS V14.01,2013-05-05 13:30:00,
2013-05-05 06:35:00,53.5,46.5,29.57,South,186,6.0,8.0,77,0.00,,---,0.00,VWS V14.01,2013-05-05 13:35:00,
2013-05-05 06:40:00,53.5,46.5,29.57,SSW,194,8.0,9.0,77,0.00,,---,0.00,VWS V14.01,2013-05-05 13:40:00,
2013-05-05 06:45:00,53.7,46.7,29.57,SSW,206,8.0,10.0,77,0.00,,---,0.00,VWS V14.01,2013-05-05 13:45:00,
2013-05-05 06:50:00,53.9,46.9,29.58,SSW,202,8.0,10.0,77,0.00,,---,0.00,VWS V14.01,2013-05-05 13:50:00,
2013-05-05 06:55:00,54.1,47.1,29.58,SSW,198,10.0,12.0,77,0.00,,---,0.00,VWS V14.01,2013-05-05 13:55:00,
2013-05-05 06:59:00,54.4,47.3,29.58,SSW,204,9.0,12.0,77,0.00,,---,0.00,VWS V14.01,2013-05-05 13:59:00,
2013-05-05 07:00:00,54.5,47.1,29.58,SSW,196,8.0,12.0,76,0.00,,---,0.00,VWS V14.01,2013-05-05 14:00:00,
2013-05-05 07:04:00,54.8,47.4,29.58,SSW,193,9.0,10.0,76,0.00,,---,0.00,VWS V14.01,2013-05-05 14:04:00,
2013-05-05 07:09:00,55.1,47.7,29.58,SSW,192,8.0,11.0,76,0.00,,---,0.00,VWS V14.01,2013-05-05 14:09:00,
2013-05-05 07:14:00,55.5,47.7,29.59,SSW,196,12.0,12.0,75,0.00,,---,0.00,VWS V14.01,2013-05-05 14:14:00,
2013-05-05 07:15:00,55.6,47.8,29.59,SSW,202,10.0,12.0,75,0.00,,---,0.00,VWS V14.01,2013-05-05 14:15:00,
2013-05-05 07:19:00,55.9,47.7,29.59,SSW,198,7.0,14.0,74,0.00,,---,0.00,VWS V14.01,2013-05-05 14:19:00,
2013-05-05 07:24:00,56.2,48.0,29.59,SSW,199,9.0,14.0,74,0.00,,---,0.00,VWS V14.01,2013-05-05 14:24:00,
2013-05-05 07:29:00,56.2,47.7,29.60,SSW,200,9.0,14.0,73,0.00,,---,0.00,VWS V14.01,2013-05-05 14:29:00,
2013-05-05 07:30:00,56.2,47.7,29.60,SSW,200,7.0,14.0,73,0.00,,---,0.00,VWS V14.01,2013-05-05 14:30:00,
2013-05-05 07:34:00,56.2,47.7,29.60,SSW,196,6.0,9.0,73,0.00,,---,0.00,VWS V14.01,2013-05-05 14:34:00,
2013-05-05 07:39:00,56.0,47.8,29.60,South,188,3.0,10.0,74,0.00,,---,0.00,VWS V14.01,2013-05-05 14:39:00,
2013-05-05 07:44:00,55.8,47.7,29.60,South,185,5.0,10.0,74,0.00,,---,0.00,VWS V14.01,2013-05-05 14:44:00,
2013-05-05 07:45:00,55.8,47.7,29.60,South,184,5.0,10.0,74,0.00,,---,0.00,VWS V14.01,2013-05-05 14:45:00,
2013-05-05 07:49:00,55.5,47.7,29.61,South,184,2.0,6.0,75,0.00,,---,0.00,VWS V14.01,2013-05-05 14:49:00,
2013-05-05 07:54:00,55.3,47.9,29.61,South,184,5.0,6.0,76,0.00,,---,0.00,VWS V14.01,2013-05-05 14:54:00,
2013-05-05 07:59:00,55.1,47.7,29.61,South,184,3.0,7.0,76,0.00,,---,0.00,VWS V14.01,2013-05-05 14:59:00,
2013-05-05 08:00:00,55.1,47.7,29.61,South,184,7.0,7.0,76,0.00,,---,0.00,VWS V14.01,2013-05-05 15:00:00,
2013-05-05 08:04:00,55.0,47.6,29.61,South,184,5.0,7.0,76,0.00,,---,0.00,VWS V14.01,2013-05-05 15:04:00,
2013-05-05 08:09:00,55.1,48.0,29.61,South,191,3.0,7.0,77,0.00,,---,0.00,VWS V14.01,2013-05-05 15:09:00,
2013-05-05 08:14:00,55.1,48.0,29.61,South,189,4.0,7.0,77,0.00,,---,0.00,VWS V14.01,2013-05-05 15:14:00,
2013-05-05 08:15:00,55.1,48.0,29.61,South,189,5.0,7.0,77,0.00,,---,0.00,VWS V14.01,2013-05-05 15:15:00,
2013-05-05 08:19:00,55.1,48.4,29.62,South,189,2.0,5.0,78,0.00,,---,0.00,VWS V14.01,2013-05-05 15:19:00,
2013-05-05 08:24:00,55.2,48.5,29.61,South,189,0.0,5.0,78,0.00,,---,0.00,VWS V14.01,2013-05-05 15:24:00,
2013-05-05 08:29:00,55.5,48.8,29.62,South,189,0.0,5.0,78,0.00,,---,0.00,VWS V14.01,2013-05-05 15:29:00,
2013-05-05 08:30:00,55.6,48.5,29.62,South,189,0.0,5.0,77,0.00,,---,0.00,VWS V14.01,2013-05-05 15:30:00,
2013-05-05 08:34:00,55.8,48.7,29.62,South,189,3.0,5.0,77,0.00,,---,0.00,VWS V14.01,2013-05-05 15:34:00,
2013-05-05 08:39:00,56.3,49.2,29.62,South,189,0.0,5.0,77,0.00,,---,0.00,VWS V14.01,2013-05-05 15:39:00,
2013-05-05 08:44:00,57.0,49.2,29.62,South,185,4.0,5.0,75,0.00,,---,0.00,VWS V14.01,2013-05-05 15:44:00,
2013-05-05 08:45:00,57.2,49.4,29.62,South,184,5.0,5.0,75,0.00,,---,0.00,VWS V14.01,2013-05-05 15:45:00,
2013-05-05 08:49:00,57.6,49.8,29.62,South,182,2.0,6.0,75,0.00,,---,0.00,VWS V14.01,2013-05-05 15:49:00,
2013-05-05 08:54:00,58.2,49.6,29.62,South,169,5.0,8.0,73,0.00,,---,0.00,VWS V14.01,2013-05-05 15:54:00,
2013-05-05 08:59:00,58.8,49.0,29.63,South,169,5.0,8.0,70,0.00,,---,0.00,VWS V14.01,2013-05-05 15:59:00,
2013-05-05 09:00:00,58.9,49.2,29.63,South,169,4.0,8.0,70,0.00,,---,0.00,VWS V14.01,2013-05-05 16:00:00,
2013-05-05 09:04:00,59.1,49.3,29.63,SSE,166,7.0,9.0,70,0.00,,---,0.00,VWS V14.01,2013-05-05 16:04:00,
2013-05-05 09:09:00,59.7,49.9,29.63,SSE,157,6.0,9.0,70,0.00,,---,0.00,VWS V14.01,2013-05-05 16:09:00,
2013-05-05 09:14:00,60.2,49.2,29.63,SSE,147,6.0,9.0,67,0.00,,---,0.00,VWS V14.01,2013-05-05 16:14:00,
2013-05-05 09:15:00,60.3,49.7,29.63,SE,144,7.0,9.0,68,0.00,,---,0.00,VWS V14.01,2013-05-05 16:15:00,
2013-05-05 09:19:00,60.4,49.8,29.63,SE,144,5.0,9.0,68,0.00,,---,0.00,VWS V14.01,2013-05-05 16:19:00,
2013-05-05 09:24:00,60.4,50.2,29.63,SE,135,7.0,9.0,69,0.00,,---,0.00,VWS V14.01,2013-05-05 16:24:00,
2013-05-05 09:29:00,60.4,49.8,29.63,SE,135,5.0,9.0,68,0.00,,---,0.00,VWS V14.01,2013-05-05 16:29:00,
2013-05-05 09:30:00,60.4,50.2,29.63,SE,135,4.0,9.0,69,0.00,,---,0.00,VWS V14.01,2013-05-05 16:30:00,
2013-05-05 09:34:00,60.4,49.4,29.63,SE,136,4.0,7.0,67,0.00,,---,0.00,VWS V14.01,2013-05-05 16:34:00,
2013-05-05 09:39:00,60.5,49.9,29.63,SE,140,6.0,9.0,68,0.00,,---,0.00,VWS V14.01,2013-05-05 16:39:00,
2013-05-05 09:44:00,60.5,50.3,29.64,SE,141,6.0,9.0,69,0.00,,---,0.00,VWS V14.01,2013-05-05 16:44:00,
2013-05-05 09:45:00,60.5,49.9,29.64,SE,141,5.0,9.0,68,0.00,,---,0.00,VWS V14.01,2013-05-05 16:45:00,
2013-05-05 09:49:00,60.5,50.3,29.64,SE,141,4.0,8.0,69,0.00,,---,0.00,VWS V14.01,2013-05-05 16:49:00,
2013-05-05 09:54:00,60.6,50.4,29.64,SE,141,0.0,8.0,69,0.00,,---,0.00,VWS V14.01,2013-05-05 16:54:00,
2013-05-05 09:59:00,60.7,50.1,29.64,SE,134,6.0,9.0,68,0.00,,---,0.00,VWS V14.01,2013-05-05 16:59:00,
2013-05-05 10:00:00,60.8,50.2,29.64,SE,134,4.0,9.0,68,0.00,,---,0.00,VWS V14.01,2013-05-05 17:00:00,
2013-05-05 10:04:00,60.9,50.7,29.64,SE,134,4.0,6.0,69,0.00,,---,0.00,VWS V14.01,2013-05-05 17:04:00,
2013-05-05 10:09:00,61.0,50.0,29.64,SE,137,11.0,11.0,67,0.00,,---,0.00,VWS V14.01,2013-05-05 17:09:00,
2013-05-05 10:14:00,61.2,49.8,29.64,SE,140,6.0,11.0,66,0.00,,---,0.00,VWS V14.01,2013-05-05 17:14:00,
2013-05-05 10:15:00,61.2,50.2,29.64,SE,139,6.0,11.0,67,0.00,,---,0.00,VWS V14.01,2013-05-05 17:15:00,
2013-05-05 10:19:00,61.3,50.3,29.64,SE,134,5.0,8.0,67,0.00,,---,0.00,VWS V14.01,2013-05-05 17:19:00,
2013-05-05 10:24:00,61.5,50.5,29.65,SE,133,5.0,9.0,67,0.00,,---,0.00,VWS V14.01,2013-05-05 17:24:00,
2013-05-05 10:29:00,61.7,50.2,29.65,SE,132,0.0,9.0,66,0.00,,---,0.00,VWS V14.01,2013-05-05 17:29:00,
2013-05-05 10:30:00,61.7,50.7,29.64,SE,132,0.0,9.0,67,0.00,,---,0.00,VWS V14.01,2013-05-05 17:30:00,
2013-05-05 10:34:00,61.7,50.6,29.65,SE,132,0.0,1.0,67,0.00,,---,0.00,VWS V14.01,2013-05-05 17:34:00,
2013-05-05 10:39:00,61.7,50.2,29.65,SE,132,6.0,6.0,66,0.00,,---,0.00,VWS V14.01,2013-05-05 17:39:00,
2013-05-05 10:44:00,61.7,49.8,29.65,SE,134,7.0,7.0,65,0.00,,---,0.00,VWS V14.01,2013-05-05 17:44:00,
2013-05-05 10:45:00,61.7,49.8,29.65,South,176,8.0,11.0,65,0.00,,---,0.00,VWS V14.01,2013-05-05 17:45:00,
2013-05-05 10:49:00,61.9,49.6,29.65,SSW,199,6.0,9.0,64,0.00,,---,0.00,VWS V14.01,2013-05-05 17:49:00,
2013-05-05 10:54:00,62.3,49.1,29.66,SSW,209,3.0,12.0,62,0.00,,---,0.00,VWS V14.01,2013-05-05 17:54:00,
2013-05-05 10:59:00,62.8,49.6,29.66,SSW,207,8.0,12.0,62,0.00,,---,0.00,VWS V14.01,2013-05-05 17:59:00,
2013-05-05 11:00:00,62.9,49.3,29.66,SSW,204,5.0,12.0,61,0.00,,---,0.00,VWS V14.01,2013-05-05 18:00:00,
2013-05-05 11:04:00,63.2,50.0,29.66,SSW,204,5.0,8.0,62,0.00,,---,0.00,VWS V14.01,2013-05-05 18:04:00,
2013-05-05 11:09:00,63.8,49.7,29.66,SW,214,2.0,11.0,60,0.00,,---,0.00,VWS V14.01,2013-05-05 18:09:00,
2013-05-05 11:14:00,64.3,49.7,29.66,SSW,213,8.0,11.0,59,0.00,,---,0.00,VWS V14.01,2013-05-05 18:14:00,
2013-05-05 11:15:00,64.5,49.4,29.66,SSW,213,9.0,11.0,58,0.00,,---,0.00,VWS V14.01,2013-05-05 18:15:00,
2013-05-05 11:19:00,64.8,49.7,29.66,SSW,200,15.0,15.0,58,0.00,,---,0.00,VWS V14.01,2013-05-05 18:19:00,
2013-05-05 11:24:00,65.6,50.4,29.66,South,185,4.0,15.0,58,0.00,,---,0.00,VWS V14.01,2013-05-05 18:24:00,
2013-05-05 11:29:00,66.7,51.0,29.66,SSW,198,10.0,15.0,57,0.00,,---,0.00,VWS V14.01,2013-05-05 18:29:00,
2013-05-05 11:30:00,67.0,49.8,29.67,SSW,198,5.0,15.0,54,0.00,,---,0.00,VWS V14.01,2013-05-05 18:30:00,
2013-05-05 11:34:00,67.8,50.6,29.67,SSW,198,12.0,15.0,54,0.00,,---,0.00,VWS V14.01,2013-05-05 18:34:00,
2013-05-05 11:39:00,68.4,49.6,29.67,SSW,206,6.0,18.0,51,0.00,,---,0.00,VWS V14.01,2013-05-05 18:39:00,
2013-05-05 11:44:00,68.5,50.2,29.67,SSW,207,13.0,18.0,52,0.00,,---,0.00,VWS V14.01,2013-05-05 18:44:00,
2013-05-05 11:45:00,68.4,50.1,29.67,SW,222,6.0,18.0,52,0.00,,---,0.00,VWS V14.01,2013-05-05 18:45:00,
2013-05-05 11:49:00,68.3,49.0,29.67,SSW,198,7.0,15.0,50,0.00,,---,0.00,VWS V14.01,2013-05-05 18:49:00,
2013-05-05 11:54:00,68.5,50.7,29.67,WSW,252,11.0,15.0,53,0.00,,---,0.00,VWS V14.01,2013-05-05 18:54:00,
2013-05-05 11:59:00,69.2,50.8,29.66,SW,225,12.0,15.0,52,0.00,,---,0.00,VWS V14.01,2013-05-05 18:59:00,
2013-05-05 12:00:00,69.4,50.5,29.66,West,271,9.0,15.0,51,0.00,,---,0.00,VWS V14.01,2013-05-05 19:00:00,
2013-05-05 12:04:00,69.6,49.1,29.67,South,180,7.0,12.0,48,0.00,,---,0.00,VWS V14.01,2013-05-05 19:04:00,
2013-05-05 12:09:00,69.7,50.2,29.67,SW,215,5.0,12.0,50,0.00,,---,0.00,VWS V14.01,2013-05-05 19:09:00,
2013-05-05 12:14:00,70.4,50.3,29.66,SW,227,5.0,15.0,49,0.00,,---,0.00,VWS V14.01,2013-05-05 19:14:00,
2013-05-05 12:15:00,70.6,49.4,29.66,SSW,205,9.0,15.0,47,0.00,,---,0.00,VWS V14.01,2013-05-05 19:15:00,
2013-05-05 12:19:00,71.1,50.4,29.67,SSW,213,5.0,13.0,48,0.00,,---,0.00,VWS V14.01,2013-05-05 19:19:00,
2013-05-05 12:24:00,71.7,50.4,29.66,SSW,208,9.0,13.0,47,0.00,,---,0.00,VWS V14.01,2013-05-05 19:24:00,
2013-05-05 12:29:00,72.0,49.5,29.67,WSW,249,4.0,15.0,45,0.00,,---,0.00,VWS V14.01,2013-05-05 19:29:00,
2013-05-05 12:30:00,72.0,49.5,29.67,SW,225,4.0,15.0,45,0.00,,---,0.00,VWS V14.01,2013-05-05 19:30:00,
2013-05-05 12:34:00,72.0,50.1,29.66,WSW,254,5.0,11.0,46,0.00,,---,0.00,VWS V14.01,2013-05-05 19:34:00,
2013-05-05 12:39:00,72.1,49.6,29.66,WSW,250,10.0,14.0,45,0.00,,---,0.00,VWS V14.01,2013-05-05 19:39:00,
2013-05-05 12:44:00,72.3,49.2,29.66,WSW,237,2.0,14.0,44,0.00,,---,0.00,VWS V14.01,2013-05-05 19:44:00,
2013-05-05 12:45:00,72.3,49.2,29.66,South,190,11.0,14.0,44,0.00,,---,0.00,VWS V14.01,2013-05-05 19:45:00,
2013-05-05 12:49:00,71.9,47.6,29.66,WSW,255,8.0,17.0,42,0.00,,---,0.00,VWS V14.01,2013-05-05 19:49:00,
2013-05-05 12:54:00,71.3,48.3,29.66,SW,222,8.0,17.0,44,0.00,,---,0.00,VWS V14.01,2013-05-05 19:54:00,
2013-05-05 12:59:00,71.2,48.2,29.66,SSW,211,7.0,17.0,44,0.00,,---,0.00,VWS V14.01,2013-05-05 19:59:00,
2013-05-05 13:00:00,71.3,48.9,29.65,SSW,209,0.0,17.0,45,0.00,,---,0.00,VWS V14.01,2013-05-05 20:00:00,
2013-05-05 13:04:00,71.7,48.7,29.66,SSW,208,10.0,16.0,44,0.00,,---,0.00,VWS V14.01,2013-05-05 20:04:00,
2013-05-05 13:09:00,72.2,48.5,29.65,WSW,255,1.0,16.0,43,0.00,,---,0.00,VWS V14.01,2013-05-05 20:09:00,
2013-05-05 13:14:00,72.6,49.5,29.65,SSW,202,3.0,16.0,44,0.00,,---,0.00,VWS V14.01,2013-05-05 20:14:00,
2013-05-05 13:15:00,72.6,48.2,29.66,SSW,201,1.0,16.0,42,0.00,,---,0.00,VWS V14.01,2013-05-05 20:15:00,
2013-05-05 13:18:00,72.7,48.9,29.65,WSW,255,4.0,7.0,43,0.00,,---,0.00,VWS V14.01,2013-05-05 20:18:00,
2013-05-05 13:23:00,73.1,48.7,29.65,SSW,206,1.0,7.0,42,0.00,,---,0.00,VWS V14.01,2013-05-05 20:23:00,
2013-05-05 13:28:00,73.5,49.0,29.66,SSW,205,4.0,12.0,42,0.00,,---,0.00,VWS V14.01,2013-05-05 20:28:00,
2013-05-05 13:30:00,73.7,47.9,29.66,South,182,6.0,13.0,40,0.00,,---,0.00,VWS V14.01,2013-05-05 20:30:00,
2013-05-05 13:33:00,73.6,47.8,29.65,South,182,0.0,7.0,40,0.00,,---,0.00,VWS V14.01,2013-05-05 20:33:00,
2013-05-05 13:38:00,73.6,47.1,29.66,SSW,207,5.0,9.0,39,0.00,,---,0.00,VWS V14.01,2013-05-05 20:38:00,
2013-05-05 13:43:00,73.5,47.7,29.65,SSW,192,1.0,9.0,40,0.00,,---,0.00,VWS V14.01,2013-05-05 20:43:00,
2013-05-05 13:45:00,73.5,49.0,29.65,SSW,192,2.0,9.0,42,0.00,,---,0.00,VWS V14.01,2013-05-05 20:45:00,
2013-05-05 13:48:00,73.5,49.0,29.66,SW,219,6.0,10.0,42,0.00,,---,0.00,VWS V14.01,2013-05-05 20:48:00,
2013-05-05 13:53:00,73.6,48.5,29.65,SW,215,0.0,10.0,41,0.00,,---,0.00,VWS V14.01,2013-05-05 20:53:00,
2013-05-05 13:58:00,73.7,49.2,29.66,SSW,207,0.0,13.0,42,0.00,,---,0.00,VWS V14.01,2013-05-05 20:58:00,
2013-05-05 14:00:00,73.7,48.6,29.66,SSW,195,11.0,13.0,41,0.00,,---,0.00,VWS V14.01,2013-05-05 21:00:00,
2013-05-05 14:03:00,73.4,47.0,29.66,South,190,9.0,12.0,39,0.00,,---,0.00,VWS V14.01,2013-05-05 21:03:00,
2013-05-05 14:08:00,72.6,48.8,29.66,SSW,197,3.0,12.0,43,0.00,,---,0.00,VWS V14.01,2013-05-05 21:08:00,
2013-05-05 14:13:00,72.8,48.4,29.66,SSW,195,2.0,12.0,42,0.00,,---,0.00,VWS V14.01,2013-05-05 21:13:00,
2013-05-05 14:15:00,72.9,47.2,29.66,SSW,195,1.0,12.0,40,0.00,,---,0.00,VWS V14.01,2013-05-05 21:15:00,
2013-05-05 14:18:00,73.0,48.6,29.66,SSW,204,2.0,5.0,42,0.00,,---,0.00,VWS V14.01,2013-05-05 21:18:00,
2013-05-05 14:23:00,73.1,48.7,29.66,SSW,207,6.0,6.0,42,0.00,,---,0.00,VWS V14.01,2013-05-05 21:23:00,
2013-05-05 14:28:00,73.1,48.0,29.66,SW,214,0.0,8.0,41,0.00,,---,0.00,VWS V14.01,2013-05-05 21:28:00,
2013-05-05 14:30:00,73.1,48.7,29.66,SSW,212,5.0,8.0,42,0.00,,---,0.00,VWS V14.01,2013-05-05 21:30:00,
2013-05-05 14:33:00,73.1,48.0,29.66,SSW,208,7.0,7.0,41,0.00,,---,0.00,VWS V14.01,2013-05-05 21:33:00,
2013-05-05 14:38:00,72.9,49.1,29.66,WSW,242,2.0,13.0,43,0.00,,---,0.00,VWS V14.01,2013-05-05 21:38:00,
2013-05-05 14:43:00,73.0,49.2,29.66,SW,219,1.0,13.0,43,0.00,,---,0.00,VWS V14.01,2013-05-05 21:43:00,
2013-05-05 14:45:00,73.0,49.2,29.65,SW,219,0.0,13.0,43,0.00,,---,0.00,VWS V14.01,2013-05-05 21:45:00,
2013-05-05 14:48:00,72.9,47.8,29.66,South,189,4.0,9.0,41,0.00,,---,0.00,VWS V14.01,2013-05-05 21:48:00,
2013-05-05 14:53:00,72.4,47.4,29.65,South,191,6.0,9.0,41,0.00,,---,0.00,VWS V14.01,2013-05-05 21:53:00,
2013-05-05 14:58:00,72.3,48.0,29.65,West,269,4.0,9.0,42,0.00,,---,0.00,VWS V14.01,2013-05-05 21:58:00,
2013-05-05 15:00:00,72.4,48.7,29.66,West,263,2.0,9.0,43,0.00,,---,0.00,VWS V14.01,2013-05-05 22:00:00,
2013-05-05 15:03:00,72.6,48.2,29.66,SSW,203,0.0,10.0,42,0.00,,---,0.00,VWS V14.01,2013-05-05 22:03:00,
2013-05-05 15:08:00,72.9,48.5,29.66,WSW,247,4.0,10.0,42,0.00,,---,0.00,VWS V14.01,2013-05-05 22:08:00,
2013-05-05 15:13:00,72.9,48.5,29.66,WSW,246,1.0,10.0,42,0.00,,---,0.00,VWS V14.01,2013-05-05 22:13:00,
2013-05-05 15:15:00,73.0,48.6,29.66,WSW,254,0.0,10.0,42,0.00,,---,0.00,VWS V14.01,2013-05-05 22:15:00,
2013-05-05 15:18:00,73.2,49.4,29.66,SSW,213,6.0,7.0,43,0.00,,---,0.00,VWS V14.01,2013-05-05 22:18:00,
2013-05-05 15:23:00,73.3,48.2,29.65,SSW,209,0.0,7.0,41,0.00,,---,0.00,VWS V14.01,2013-05-05 22:23:00,
2013-05-05 15:28:00,73.3,48.2,29.65,SSW,209,0.0,7.0,41,0.00,,---,0.00,VWS V14.01,2013-05-05 22:28:00,
2013-05-05 15:30:00,73.4,49.6,29.65,SSW,211,1.0,7.0,43,0.00,,---,0.00,VWS V14.01,2013-05-05 22:30:00,
2013-05-05 15:33:00,73.6,49.1,29.65,WSW,243,0.0,6.0,42,0.00,,---,0.00,VWS V14.01,2013-05-05 22:33:00,
2013-05-05 15:38:00,74.1,48.9,29.65,SSW,196,6.0,10.0,41,0.00,,---,0.00,VWS V14.01,2013-05-05 22:38:00,
2013-05-05 15:43:00,74.2,49.0,29.65,SW,219,0.0,11.0,41,0.00,,---,0.00,VWS V14.01,2013-05-05 22:43:00,
2013-05-05 15:45:00,74.2,49.0,29.65,SW,219,0.0,11.0,41,0.00,,---,0.00,VWS V14.01,2013-05-05 22:45:00,
2013-05-05 15:48:00,74.2,48.3,29.65,WSW,239,4.0,7.0,40,0.00,,---,0.00,VWS V14.01,2013-05-05 22:48:00,
2013-05-05 15:53:00,73.9,48.1,29.65,WSW,246,3.0,7.0,40,0.00,,---,0.00,VWS V14.01,2013-05-05 22:53:00,
2013-05-05 15:58:00,73.7,48.6,29.65,WSW,238,0.0,8.0,41,0.00,,---,0.00,VWS V14.01,2013-05-05 22:58:00,
2013-05-05 16:00:00,73.8,49.3,29.65,WSW,246,3.0,8.0,42,0.00,,---,0.00,VWS V14.01,2013-05-05 23:00:00,
2013-05-05 16:03:00,74.0,49.5,29.65,WSW,246,2.0,7.0,42,0.00,,---,0.00,VWS V14.01,2013-05-05 23:03:00,
2013-05-05 16:08:00,74.6,48.7,29.65,WNW,289,1.0,8.0,40,0.00,,---,0.00,VWS V14.01,2013-05-05 23:08:00,
2013-05-05 16:13:00,75.1,49.8,29.65,SW,218,2.0,8.0,41,0.00,,---,0.00,VWS V14.01,2013-05-05 23:13:00,
2013-05-05 16:15:00,75.3,49.3,29.65,SW,225,2.0,8.0,40,0.00,,---,0.00,VWS V14.01,2013-05-05 23:15:00,
2013-05-05 16:18:00,75.5,50.2,29.65,SW,225,3.0,3.0,41,0.00,,---,0.00,VWS V14.01,2013-05-05 23:18:00,
2013-05-05 16:23:00,75.9,49.9,29.64,West,281,0.0,6.0,40,0.00,,---,0.00,VWS V14.01,2013-05-05 23:23:00,
2013-05-05 16:28:00,76.2,49.5,29.64,WSW,238,1.0,7.0,39,0.00,,---,0.00,VWS V14.01,2013-05-05 23:28:00,
2013-05-05 16:30:00,76.3,48.1,29.64,WSW,238,0.0,7.0,37,0.00,,---,0.00,VWS V14.01,2013-05-05 23:30:00,
2013-05-05 16:33:00,76.1,48.7,29.65,SW,218,0.0,6.0,38,0.00,,---,0.00,VWS V14.01,2013-05-05 23:33:00,
2013-05-05 16:38:00,75.9,49.2,29.64,SSW,200,11.0,11.0,39,0.00,,---,0.00,VWS V14.01,2013-05-05 23:38:00,
2013-05-05 16:43:00,75.9,48.5,29.64,West,263,0.0,11.0,38,0.00,,---,0.00,VWS V14.01,2013-05-05 23:43:00,
2013-05-05 16:45:00,75.9,49.2,29.65,West,281,4.0,11.0,39,0.00,,---,0.00,VWS V14.01,2013-05-05 23:45:00,
2013-05-05 16:48:00,76.0,49.3,29.65,West,277,2.0,6.0,39,0.00,,---,0.00,VWS V14.01,2013-05-05 23:48:00,
2013-05-05 16:53:00,76.1,49.4,29.64,WSW,250,5.0,7.0,39,0.00,,---,0.00,VWS V14.01,2013-05-05 23:53:00,
2013-05-05 16:58:00,76.1,48.7,29.64,NW,304,0.0,7.0,38,0.00,,---,0.00,VWS V14.01,2013-05-05 23:58:00,
2013-05-05 17:00:00,76.1,49.4,29.64,WNW,294,6.0,7.0,39,0.00,,---,0.00,VWS V14.01,2013-05-06 00:00:00,
2013-05-05 17:03:00,76.1,50.0,29.64,WSW,250,1.0,7.0,40,0.00,,---,0.00,VWS V14.01,2013-05-06 00:03:00,
2013-05-05 17:08:00,76.0,50.0,29.64,SW,221,0.0,9.0,40,0.00,,---,0.00,VWS V14.01,2013-05-06 00:08:00,
2013-05-05 17:13:00,75.4,47.3,29.65,SW,221,5.0,9.0,37,0.00,,---,0.00,VWS V14.01,2013-05-06 00:13:00,
2013-05-05 17:15:00,75.0,48.4,29.65,SW,236,3.0,9.0,39,0.00,,---,0.00,VWS V14.01,2013-05-06 00:15:00,
2013-05-05 17:18:00,74.6,49.4,29.65,WSW,241,2.0,5.0,41,0.00,,---,0.00,VWS V14.01,2013-05-06 00:18:00,
2013-05-05 17:23:00,74.2,49.7,29.64,WSW,240,3.0,5.0,42,0.00,,---,0.00,VWS V14.01,2013-05-06 00:23:00,
2013-05-05 17:28:00,73.8,49.3,29.65,WSW,255,3.0,7.0,42,0.00,,---,0.00,VWS V14.01,2013-05-06 00:28:00,
2013-05-05 17:30:00,73.6,49.8,29.65,WSW,254,4.0,7.0,43,0.00,,---,0.00,VWS V14.01,2013-05-06 00:30:00,
2013-05-05 17:33:00,73.3,48.8,29.65,WSW,254,0.0,4.0,42,0.00,,---,0.00,VWS V14.01,2013-05-06 00:33:00,
2013-05-05 17:38:00,72.9,48.5,29.65,WSW,258,0.0,4.0,42,0.00,,---,0.00,VWS V14.01,2013-05-06 00:38:00,
2013-05-05 17:43:00,72.6,48.8,29.65,WSW,257,1.0,4.0,43,0.00,,---,0.00,VWS V14.01,2013-05-06 00:43:00,
2013-05-05 17:45:00,72.4,49.9,29.65,WSW,255,1.0,5.0,45,0.00,,---,0.00,VWS V14.01,2013-05-06 00:45:00,
2013-05-05 17:48:00,72.2,49.1,29.65,WSW,255,0.0,3.0,44,0.00,,---,0.00,VWS V14.01,2013-05-06 00:48:00,
2013-05-05 17:53:00,72.0,49.5,29.65,WSW,254,0.0,4.0,45,0.00,,---,0.00,VWS V14.01,2013-05-06 00:53:00,
2013-05-05 17:58:00,71.9,48.8,29.65,WSW,254,4.0,4.0,44,0.00,,---,0.00,VWS V14.01,2013-05-06 00:58:00,
2013-05-05 18:00:00,71.8,49.3,29.65,WSW,254,4.0,4.0,45,0.00,,---,0.00,VWS V14.01,2013-05-06 01:00:00,
2013-05-05 18:03:00,71.7,49.8,29.65,WSW,254,0.0,4.0,46,0.00,,---,0.00,VWS V14.01,2013-05-06 01:03:00,
2013-05-05 18:08:00,71.6,49.8,29.65,WSW,254,4.0,4.0,46,0.00,,---,0.00,VWS V14.01,2013-05-06 01:08:00,
2013-05-05 18:13:00,71.5,48.5,29.65,WSW,254,0.0,5.0,44,0.00,,---,0.00,VWS V14.01,2013-05-06 01:13:00,
2013-05-05 18:15:00,71.4,49.6,29.65,WSW,254,0.0,5.0,46,0.00,,---,0.00,VWS V14.01,2013-05-06 01:15:00,
2013-05-05 18:18:00,71.4,49.0,29.65,WSW,254,0.0,3.0,45,0.00,,---,0.00,VWS V14.01,2013-05-06 01:18:00,
2013-05-05 18:23:00,71.4,49.6,29.65,WSW,254,3.0,4.0,46,0.00,,---,0.00,VWS V14.01,2013-05-06 01:23:00,
2013-05-05 18:28:00,71.4,49.6,29.65,WSW,254,1.0,4.0,46,0.00,,---,0.00,VWS V14.01,2013-05-06 01:28:00,
2013-05-05 18:30:00,71.4,49.6,29.65,WSW,254,4.0,4.0,46,0.00,,---,0.00,VWS V14.01,2013-05-06 01:30:00,
2013-05-05 18:33:00,71.3,49.5,29.65,WSW,254,1.0,4.0,46,0.00,,---,0.00,VWS V14.01,2013-05-06 01:33:00,
2013-05-05 18:38:00,71.3,49.5,29.65,WSW,258,4.0,5.0,46,0.00,,---,0.00,VWS V14.01,2013-05-06 01:38:00,
2013-05-05 18:43:00,71.3,50.0,29.65,WSW,258,0.0,5.0,47,0.00,,---,0.00,VWS V14.01,2013-05-06 01:43:00,
2013-05-05 18:45:00,71.3,50.0,29.65,WSW,258,1.0,5.0,47,0.00,,---,0.00,VWS V14.01,2013-05-06 01:45:00,
2013-05-05 18:48:00,71.2,50.0,29.65,WSW,258,0.0,2.0,47,0.00,,---,0.00,VWS V14.01,2013-05-06 01:48:00,
2013-05-05 18:53:00,71.1,49.3,29.65,WSW,258,0.0,2.0,46,0.00,,---,0.00,VWS V14.01,2013-05-06 01:53:00,
2013-05-05 18:58:00,71.0,49.8,29.65,WSW,258,0.0,2.0,47,0.00,,---,0.00,VWS V14.01,2013-05-06 01:58:00,
2013-05-05 19:00:00,71.0,49.8,29.65,WSW,258,0.0,2.0,47,0.00,,---,0.00,VWS V14.01,2013-05-06 02:00:00,
2013-05-05 19:03:00,70.9,50.2,29.66,WSW,258,0.0,0.0,48,0.00,,---,0.00,VWS V14.01,2013-05-06 02:03:00,
2013-05-05 19:08:00,70.8,50.2,29.66,WSW,258,0.0,0.0,48,0.00,,---,0.00,VWS V14.01,2013-05-06 02:08:00,
2013-05-05 19:12:00,70.6,49.4,29.66,WSW,258,0.0,0.0,47,0.00,,---,0.00,VWS V14.01,2013-05-06 02:12:00,
2013-05-05 19:15:00,70.5,49.9,29.66,WSW,258,0.0,0.0,48,0.00,,---,0.00,VWS V14.01,2013-05-06 02:15:00,
2013-05-05 19:17:00,70.4,49.2,29.66,WSW,258,2.0,2.0,47,0.00,,---,0.00,VWS V14.01,2013-05-06 02:17:00,
2013-05-05 19:22:00,70.2,49.0,29.66,West,263,0.0,4.0,47,0.00,,---,0.00,VWS V14.01,2013-05-06 02:22:00,
2013-05-05 19:27:00,70.0,50.0,29.66,West,263,0.0,4.0,49,0.00,,---,0.00,VWS V14.01,2013-05-06 02:27:00,
2013-05-05 19:30:00,69.9,49.9,29.66,West,263,0.0,4.0,49,0.00,,---,0.00,VWS V14.01,2013-05-06 02:30:00,
2013-05-05 19:32:00,69.8,49.2,29.66,West,263,2.0,3.0,48,0.00,,---,0.00,VWS V14.01,2013-05-06 02:32:00,
2013-05-05 19:37:00,69.5,48.4,29.66,West,263,2.0,4.0,47,0.00,,---,0.00,VWS V14.01,2013-05-06 02:37:00,
2013-05-05 19:42:00,69.4,48.9,29.66,West,263,0.0,4.0,48,0.00,,---,0.00,VWS V14.01,2013-05-06 02:42:00,
2013-05-05 19:45:00,69.3,49.3,29.67,West,263,0.0,4.0,49,0.00,,---,0.00,VWS V14.01,2013-05-06 02:45:00,
2013-05-05 19:47:00,69.2,49.8,29.66,West,263,0.0,0.0,50,0.00,,---,0.00,VWS V14.01,2013-05-06 02:47:00,
2013-05-05 19:52:00,69.0,50.7,29.67,West,263,0.0,0.0,52,0.00,,---,0.00,VWS V14.01,2013-05-06 02:52:00,
2013-05-05 19:57:00,68.8,50.0,29.67,West,263,0.0,0.0,51,0.00,,---,0.00,VWS V14.01,2013-05-06 02:57:00,
2013-05-05 20:00:00,68.7,50.4,29.67,West,263,0.0,0.0,52,0.00,,---,0.00,VWS V14.01,2013-05-06 03:00:00,
2013-05-05 20:02:00,68.5,50.2,29.67,West,263,0.0,0.0,52,0.00,,---,0.00,VWS V14.01,2013-05-06 03:02:00,
2013-05-05 20:07:00,68.2,50.4,29.67,West,263,0.0,0.0,53,0.00,,---,0.00,VWS V14.01,2013-05-06 03:07:00,
2013-05-05 20:12:00,67.8,50.1,29.68,West,263,2.0,4.0,53,0.00,,---,0.00,VWS V14.01,2013-05-06 03:12:00,
2013-05-05 20:15:00,67.6,49.4,29.67,West,263,3.0,4.0,52,0.00,,---,0.00,VWS V14.01,2013-05-06 03:15:00,
2013-05-05 20:17:00,67.4,49.7,29.68,West,263,2.0,3.0,53,0.00,,---,0.00,VWS V14.01,2013-05-06 03:17:00,
2013-05-05 20:22:00,67.0,49.8,29.68,West,263,3.0,4.0,54,0.00,,---,0.00,VWS V14.01,2013-05-06 03:22:00,
2013-05-05 20:27:00,66.6,50.0,29.68,West,259,4.0,5.0,55,0.00,,---,0.00,VWS V14.01,2013-05-06 03:27:00,
2013-05-05 20:30:00,66.4,50.2,29.68,WSW,258,4.0,5.0,56,0.00,,---,0.00,VWS V14.01,2013-05-06 03:30:00,
2013-05-05 20:32:00,66.3,50.2,29.68,WSW,258,2.0,4.0,56,0.00,,---,0.00,VWS V14.01,2013-05-06 03:32:00,
2013-05-05 20:37:00,66.0,49.9,29.69,SSW,192,9.0,11.0,56,0.00,,---,0.00,VWS V14.01,2013-05-06 03:37:00,
2013-05-05 20:42:00,65.7,50.1,29.69,SSW,199,7.0,12.0,57,0.00,,---,0.00,VWS V14.01,2013-05-06 03:42:00,
2013-05-05 20:45:00,65.5,50.3,29.69,SSW,198,9.0,12.0,58,0.00,,---,0.00,VWS V14.01,2013-05-06 03:45:00,
2013-05-05 20:47:00,65.4,50.2,29.69,SSW,210,9.0,13.0,58,0.00,,---,0.00,VWS V14.01,2013-05-06 03:47:00,
2013-05-05 20:52:00,65.0,50.3,29.69,SSW,205,8.0,13.0,59,0.00,,---,0.00,VWS V14.01,2013-05-06 03:52:00,
2013-05-05 20:57:00,64.6,50.4,29.69,SSW,206,6.0,13.0,60,0.00,,---,0.00,VWS V14.01,2013-05-06 03:57:00,
2013-05-05 21:00:00,64.3,50.6,29.69,SSW,205,7.0,13.0,61,0.00,,---,0.00,VWS V14.01,2013-05-06 04:00:00,
2013-05-05 21:01:00,64.3,50.6,29.69,SSW,205,5.0,8.0,61,0.00,,---,0.00,VWS V14.01,2013-05-06 04:01:00,
2013-05-05 21:06:00,63.8,50.5,29.69,SSW,205,1.0,8.0,62,0.00,,---,0.00,VWS V14.01,2013-05-06 04:06:00,
2013-05-05 21:11:00,63.4,50.6,29.69,SSW,205,2.0,8.0,63,0.00,,---,0.00,VWS V14.01,2013-05-06 04:11:00,
2013-05-05 21:15:00,63.1,50.7,29.69,SSW,205,0.0,8.0,64,0.00,,---,0.00,VWS V14.01,2013-05-06 04:15:00,
2013-05-05 21:16:00,63.1,50.7,29.69,SSW,205,0.0,1.0,64,0.00,,---,0.00,VWS V14.01,2013-05-06 04:16:00,
2013-05-05 21:21:00,62.8,50.5,29.69,SSW,205,0.0,2.0,64,0.00,,---,0.00,VWS V14.01,2013-05-06 04:21:00,
2013-05-05 21:26:00,62.6,50.7,29.69,SSW,205,1.0,2.0,65,0.00,,---,0.00,VWS V14.01,2013-05-06 04:26:00,
2013-05-05 21:30:00,62.4,50.5,29.69,SSW,205,0.0,3.0,65,0.00,,---,0.00,VWS V14.01,2013-05-06 04:30:00,
2013-05-05 21:31:00,62.4,50.5,29.70,SSW,205,0.0,0.0,65,0.00,,---,0.00,VWS V14.01,2013-05-06 04:31:00,
2013-05-05 21:45:00,62.0,50.5,29.70,SSW,202,0.0,6.0,66,0.00,,---,0.00,VWS V14.01,2013-05-06 04:45:00,
2013-05-05 22:00:00,61.6,50.5,29.71,SSW,202,3.0,7.0,67,0.00,,---,0.00,VWS V14.01,2013-05-06 05:00:00,
2013-05-05 22:15:00,61.1,50.5,29.72,SSW,202,2.0,5.0,68,0.00,,---,0.00,VWS V14.01,2013-05-06 05:15:00,
2013-05-05 22:30:00,60.6,50.0,29.72,SSW,202,0.0,3.0,68,0.00,,---,0.00,VWS V14.01,2013-05-06 05:30:00,
2013-05-05 22:45:00,60.0,49.4,29.72,SSW,202,1.0,3.0,68,0.00,,---,0.00,VWS V14.01,2013-05-06 05:45:00,
2013-05-05 23:00:00,59.4,49.6,29.73,SSW,202,2.0,4.0,70,0.00,,---,0.00,VWS V14.01,2013-05-06 06:00:00,
2013-05-05 23:15:00,58.8,49.8,29.73,SSW,202,2.0,3.0,72,0.00,,---,0.00,VWS V14.01,2013-05-06 06:15:00,
2013-05-05 23:30:00,58.5,49.9,29.73,SSW,202,1.0,3.0,73,0.00,,---,0.00,VWS V14.01,2013-05-06 06:30:00,
2013-05-05 23:45:00,58.1,49.9,29.73,SSW,202,2.0,6.0,74,0.00,,---,0.00,VWS V14.01,2013-05-06 06:45:00,